Regional Weather Roundup
Issued by NWS Cleveland, OH

Home | Current Version | Previous Version | Text Only | Print | Product List | Glossary On
Versions: 1 2 3 4 5 6 7 8 9 10 11 12 13 14 15 16 17 18 19 20 21 22 23 24 25 26 27 28 29 30 31 32 33 34 35 36 37 38 39 40 41 42 43 44 45 46 47 48 49 50
000
ASUS41 KCLE 311910
RWRCLE
OHIO REGIONAL WEATHER ROUNDUP
NATIONAL WEATHER SERVICE WILMINGTON, OH
300 PM EDT FRI JUL 31 2015

NOTE: "FAIR" INDICATES FEW OR NO CLOUDS BELOW 12,000 FEET WITH NO
SIGNIFICANT WEATHER AND/OR OBSTRUCTIONS TO VISIBILITY.

OHZ001>008-015>018-024>027-034-035-043-044-312000-
   NORTHWEST OHIO

CITY           SKY/WX    TMP DP  RH WIND       PRES   REMARKS
DEFIANCE       MOSUNNY   87  57  35 W10G18    29.92F
FINDLAY        MOSUNNY   87  59  38 W14       29.93F
TOLEDO EXPRESS MOSUNNY   86  58  38 W17G29    29.90F
TOLEDO EXEC    MOSUNNY   87  58  37 W17G25    29.91F
LIMA           MOSUNNY   86  60  41 W14G24    29.97F
$$

OHZ009>014-019>023-028>033-038-089-312000-
   NORTHEAST OHIO

CITY           SKY/WX    TMP DP  RH WIND       PRES   REMARKS
CLE-HOPKINS    MOSUNNY   87  52  29 W17G26    29.94F
CLE-LAKEFRONT  SUNNY     84  65  52 W13       29.90F
CUY CO. ARPT   MOSUNNY   86  57  37 W16G29    29.93F
LORAIN-ELYRIA  MOSUNNY   84  56  38 W10       29.93F
ASHTABULA      MOSUNNY   83  56  39 W12G22    29.92F
AKRON-CANTON   MOSUNNY   86  57  37 W13       29.94F
WOOSTER        MOSUNNY   83  59  44 W12G22    29.96F
MANSFIELD      MOSUNNY   83  55  38 W12       29.97F
YOUNGSTOWN     PTSUNNY   82  55  39 NW10      29.93F
$$

OHZ042-051>053-060>062-070>072-077>081-312000-
  SOUTHWEST OHIO

CITY           SKY/WX    TMP DP  RH WIND       PRES   REMARKS
CINC-COVINGTON MOSUNNY   87  55  33 NW10G20   30.02F
CINC-LUNKEN    MOSUNNY   86  59  39 W12G18    30.01F
HAMILTON       SUNNY     86  59  39 NW14G21   30.02F
DAYTON         MOSUNNY   84  60  44 W13       30.01F
WRIGHT-PAT AFB MOSUNNY   85  60  42 NW9       29.99F
DAYTON GENERAL MOSUNNY   85  57  38 NW8       30.01F
WILMINGTON     MOSUNNY   83  56  39 W10       30.01F
$$

OHZ036-037-039>041-045>050-054>059-063>069-073>076-082>088-312000-
  CENTRAL AND SOUTHEAST OHIO

CITY           SKY/WX    TMP DP  RH WIND       PRES   REMARKS
COLUMBUS       MOSUNNY   86  58  38 NW14      29.97F
OSU AIRPORT    MOSUNNY   84  62  47 W10       29.98F
BOLTON FIELD   SUNNY     82  63  51 NW9G18    30.00F
RICKENBACK AFB MOSUNNY   85  60  42 W13G21    29.98S
NEWARK         MOSUNNY   88  59  37 W9G17     29.96F
MARION         MOSUNNY   86  56  35 NW13      29.97F
LANCASTER      SUNNY     85  60  42 W8        29.98F
ZANESVILLE     PTSUNNY   83  58  42 W10       29.96F
NEW PHILLY     PTSUNNY   83  63  50 W9G17     29.96F
$$



USA.gov is the U.S. government's official web portal to all federal, state and local government web resources and services.